{"data":{"norad_id":47844,"intl_designator":"2021-018BK","name":"STARLINK-2446","alt_names":[],"object_type":"PAYLOAD","status":"ACTIVE","operator":null,"country":"US","launch_date":"2021-03-11","launch_site_code":"AFETR","launch_vehicle":null,"mission":null,"orbit_class":"UNKNOWN","rcs_meters":null,"size_class":null,"mass_kg":null,"dimensions":null,"purposes":["comms"],"wikipedia_slug":null,"has_3d_model":false,"image_url":null,"decayed_at":null,"tle_current":{"epoch":"2026-05-25T00:36:59.559840Z","epoch_age_seconds":66679,"freshness":"FRESH","line1":"1 47844U 21018BK  26145.02568935  .00001895  00000+0  74220-4 0  9996","line2":"2 47844  53.1611 250.8726 0000424 229.5091 130.5874 15.31037682288376","mean_motion":15.31037682,"eccentricity":4.24e-5,"inclination_deg":53.1611,"raan_deg":250.8726,"arg_perigee_deg":229.5091,"mean_anomaly_deg":130.5874,"bstar":7.422e-5,"rev_number":28837,"period_min":94.053857519622,"perigee_km":472.424566297,"apogee_km":473.0055185502,"semimajor_km":6850.8520424236,"source":"CELESTRAK","updated_at":"2026-05-25T13:38:16.608780Z"}}}